Location: Auttagershofen
(48.1940°N, 10.0237°E)
Time: 07:35:55
(UTC+00:00)

Cosmos 2218 Rocket - Pass Details

Date: 18 January 2026
Orbit: 955 x 1005 km, 82.9° (Epoch: 14 February)

Event Time Altitude Azimuth Distance (km) Brightness Sun altitude
Rises 06:00:37 0° 190° (S) 3,671 7.1 -10.3°
Reaches altitude 10° 06:03:06 10° 192° (SSW) 2,735 6.5 -9.9°
Maximum altitude 06:09:24 80° 279° (W) 1,013 4.0 -8.9°
Drops below altitude 10° 06:15:49 10° 7° (N) 2,783 6.2 -7.9°
Sets 06:18:23 0° 9° (N) 3,741 6.9 -7.5°
